Change the Weather History Date:

Tuesday, May 13, 2014

  Actual Average Record
Temperature  
Mean Temperature 58 °F -  
Max Temperature 66 °F 78 °F 94 °F (2013)
Min Temperature 50 °F 59 °F 49 °F (2013)
Degree Days  
Heating Degree Days 7    
Growing Degree Days 8 (Base 50)    
Moisture  
Dew Point 48 °F    
Average Humidity 74    
Maximum Humidity 89    
Minimum Humidity 52    
Precipitation  
Precipitation 0.00 in - - ()
Sea Level Pressure  
Sea Level Pressure 30.17 in    
Wind  
Wind Speed 11 mph (North)    
Max Wind Speed 18 mph    
Max Gust Speed 29 mph    
Visibility 10 miles    
Events Rain    
Averages and records for this station are not official NWS values.
T = Trace of Precipitation, MM = Missing Value Source: NWS Daily Summary

Daily Weather History Graph

Daily Weather History Graph

Search for Another Location

Airport or City:

Trip Planner

Search our weather history database for the weather conditions in past years. The results will help you decide how hot, cold, wet, or windy it might be!

Date:

Astronomy

May. 13, 2014 Rise Set
Actual Time 6:27 AM CDT 8:21 PM CDT
Civil Twilight 5:59 AM CDT 8:49 PM CDT
Nautical Twilight 5:26 AM CDT 9:23 PM CDT
Astronomical Twilight 4:50 AM CDT 9:58 PM CDT
Moon 7:27 PM CDT (5/13) 5:40 AM CDT (5/13)
Length of Visible Light 14h 49m
Length of Day
13h 54m
Waxing Gibbous, 99% of the Moon is Illuminated
May 13
Waxing Gibbous
May 14
Full
May 21
Last Quarter
May 28
New
Jun 5
First Quarter

Hourly Weather History & Observations

Time (CDT) Temp. Dew Point Humidity Pressure Visibility Wind Dir Wind Speed Gust Speed Precip Events Conditions
12:15 AM 56.8 °F 52.2 °F 84% 30.12 in 10.0 mi North 9.2 mph 17.3 mph N/A   Scattered Clouds
12:35 AM 56.3 °F 52.0 °F 85% 30.13 in 10.0 mi North 9.2 mph - N/A   Mostly Cloudy
12:55 AM 56.3 °F 51.1 °F 83% 30.14 in 10.0 mi North 9.2 mph - N/A   Overcast
1:15 AM 55.9 °F 50.2 °F 81% 30.13 in 10.0 mi North 11.5 mph 20.7 mph N/A   Overcast
1:35 AM 55.6 °F 49.5 °F 80% 30.13 in 10.0 mi North 11.5 mph 17.3 mph N/A   Overcast
1:55 AM 55.4 °F 48.9 °F 79% 30.12 in 10.0 mi North 16.1 mph - N/A   Overcast
2:15 AM 54.9 °F 48.9 °F 80% 30.13 in 10.0 mi North 11.5 mph - N/A   Overcast
2:35 AM 54.7 °F 48.6 °F 80% 30.12 in 10.0 mi North 15.0 mph - N/A   Overcast
2:55 AM 54.5 °F 47.5 °F 77% 30.11 in 10.0 mi North 16.1 mph 23.0 mph N/A   Overcast
3:15 AM 53.8 °F 46.9 °F 78% 30.09 in 10.0 mi North 17.3 mph 23.0 mph N/A   Overcast
3:35 AM 53.6 °F 46.4 °F 77% 30.09 in 10.0 mi North 18.4 mph 28.8 mph N/A   Overcast
3:55 AM 53.1 °F 46.4 °F 78% 30.10 in 10.0 mi North 13.8 mph 19.6 mph N/A   Mostly Cloudy
4:15 AM 52.7 °F 46.2 °F 79% 30.11 in 10.0 mi North 10.4 mph 18.4 mph N/A   Scattered Clouds
4:55 AM 52.2 °F 45.7 °F 79% 30.11 in 10.0 mi North 9.2 mph - N/A   Mostly Cloudy
5:15 AM 52.2 °F 45.1 °F 77% 30.11 in 10.0 mi North 13.8 mph 19.6 mph N/A   Scattered Clouds
5:35 AM 52.0 °F 45.3 °F 78% 30.12 in 10.0 mi NNW 9.2 mph - N/A   Clear
5:55 AM 51.1 °F 45.3 °F 81% 30.12 in 10.0 mi North 8.1 mph - N/A   Clear
6:15 AM 50.7 °F 45.3 °F 82% 30.12 in 10.0 mi North 10.4 mph - N/A   Clear
6:35 AM 50.9 °F 45.0 °F 80% 30.13 in 10.0 mi North 6.9 mph - N/A   Clear
6:55 AM 50.0 °F 44.6 °F 82% 30.14 in 10.0 mi North 6.9 mph - N/A   Clear
8:55 AM 51.8 °F 44.6 °F 76% 30.21 in 10.0 mi North 9.2 mph - N/A   Scattered Clouds
11:55 AM 59.0 °F 46.4 °F 63% 30.23 in 10.0 mi North 13.8 mph 19.6 mph N/A   Scattered Clouds
12:55 PM 62.6 °F 48.2 °F 59% 30.22 in 10.0 mi North 15.0 mph - N/A   Clear
1:55 PM 66.2 °F 48.2 °F 52% 30.21 in 10.0 mi North 11.5 mph 21.9 mph N/A   Clear
2:55 PM 66.2 °F 48.2 °F 52% 30.20 in 10.0 mi North 13.8 mph 19.6 mph N/A   Clear
3:55 PM 66.2 °F 48.2 °F 52% 30.18 in 10.0 mi NNW 17.3 mph 23.0 mph N/A   Clear
4:55 PM 66.2 °F 48.2 °F 52% 30.17 in 10.0 mi North 12.7 mph 21.9 mph N/A   Scattered Clouds
5:55 PM 64.4 °F 48.2 °F 56% 30.20 in 10.0 mi North 10.4 mph 17.3 mph N/A   Scattered Clouds
6:55 PM 64.4 °F 48.2 °F 56% 30.20 in 10.0 mi North 4.6 mph - N/A   Scattered Clouds
8:55 PM - - N/A% 30.20 in 10.0 mi North 4.6 mph - N/A   Clear
9:55 PM 59.0 °F 50.0 °F 72% 30.24 in 10.0 mi North 4.6 mph - N/A   Clear
10:15 PM 59.2 °F 49.3 °F 70% 30.24 in 10.0 mi NNW 6.9 mph - N/A Rain Light Rain
10:35 PM 57.4 °F 50.0 °F 76% 30.24 in 10.0 mi North 9.2 mph - N/A Rain Rain
10:55 PM 55.4 °F 50.0 °F 82% 30.25 in 10.0 mi NW 10.4 mph - N/A   Drizzle
11:15 PM 55.4 °F 50.0 °F 82% 30.26 in 10.0 mi NNW 6.9 mph - N/A Rain Light Rain
11:35 PM 54.5 °F 50.5 °F 86% 30.26 in 10.0 mi NNW 5.8 mph - N/A Rain Rain
11:55 PM 54.1 °F 50.9 °F 89% 30.27 in 10.0 mi NNW 4.6 mph - N/A Rain Light Rain